Tracking 23099 objects as of 13-May-2021
HD Live streaming from Space Station
objects crossing your sky now

ATLAS D DEB

Track ATLAS D DEB now!
10-day predictions


NORAD ID: 2329
Int'l Code: 1966-063D
Perigee: 924.2 km
Apogee: 954.2 km
Inclination: 144.3 °
Period: 103.7 minutes
Semi major axis: 7310 km
RCS: 0.1089 m2 (medium)
Launch date: July 14, 1966
Source: United States (US)
Launch site: AIR FORCE WESTERN TEST RANGE (AFWTR)

Note: This is SATELLITE DEBRIS
aabbcc
Your satellite tracking list
Your tracking list is empty




NASA's NSSDC Master Catalog

Two Line Element Set (TLE):
1 02329U 66063D   21132.45145427  .00000404  00000-0  11551-3 0  9992
2 02329 144.2830  74.5822 0020559 301.6133 181.8887 13.89027747763012
Source of the keplerian elements: AFSPC